[[{"header":{"parameterUnit":"m.s-1","parameterCategory":2,"la1":30.2992,"la2":30.254,"lo1":-89.0895,"lo2":-89.0443,"dy":0.0025,"dx":0.0025,"nx":19,"ny":19,"refTime":"2026-03-10T09:00:00:Z","depth":"0","parameterNumber":2,"parameterNumberName":"U-component_of_CURRENTS"},"data":[0,0,0,0.2646,0.2647,0.2654,0.2654,0.2673,0.2673,0,0,0,0,0,0,0,0,0,0,0,0.2642,0.2642,0.2646,0.2647,0.2654,0.2654,0.2673,0.2673,0,0,0,0,0,0,0,0,0,0,0,0.2642,0.2642,0.2643,0.2647,0.2654,0.2654,0.2673,0.2664,0,0,0,0,0,0,0,0,0,0,0.2655,0.2655,0.2642,0.2643,0.2647,0.2654,0.2654,0.2663,0.2664,0.2674,0,0.2679,0,0.268,0.2675,0.2676,0,0,0,0.2641,0.2654,0.2654,0.2643,0.2647,0.2654,0.2649,0.2664,0.2665,0.2676,0.2679,0.268,0.2681,0.2676,0.2676,0.2764,0.2765,0,0,0.264,0.2644,0.2653,0.2655,0.2654,0.2649,0.2649,0.2664,0.2669,0.2679,0.268,0.2681,0.2676,0.2676,0.2763,0.2764,0,0,0,0.2643,0.2644,0.2644,0.2655,0.2657,0.2649,0.265,0.2668,0.2668,0.268,0.2681,0.2676,0.2676,0.2762,0.2764,0.293,0,0,0,0.2643,0.2646,0.2644,0.2647,0.2657,0.2663,0.2654,0.2667,0.2669,0.2681,0.2676,0.2677,0.2762,0.2763,0.2924,0.2974,0,0,0,0.2641,0.2646,0.2648,0.2647,0.2653,0.2662,0.2663,0.2667,0.267,0.2676,0.2677,0.2761,0.2763,0.2918,0.2965,0.3072,0,0,0,0.2643,0.2662,0.2648,0.2666,0.2653,0.2677,0.2662,0.2664,0.2668,0.2676,0.2762,0.2763,0.2917,0.2959,0.3066,0.3032,0.3058,0,0,0.2669,0.2665,0.2674,0.2663,0.2704,0.2675,0.2753,0.2739,0.2705,0.2754,0.2756,0.2926,0.2964,0.3071,0.3133,0.3157,0,0,0,0.2684,0.2698,0.2703,0.2724,0.2729,0.2799,0.2778,0.2809,0.2869,0.2718,0.2915,0.2932,0.2996,0.2961,0.298,0.2832,0.2772,0.2771,0.2771,0.2723,0.2732,0.2771,0.2799,0.2829,0.2881,0.2951,0.2994,0.2941,0.3002,0.3062,0.3242,0.3207,0.3221,0.307,0.3064,0.3065,0.3065,0.3066,0.2778,0.2807,0.2842,0.2885,0.2957,0.3024,0.3148,0.3165,0.3307,0.3216,0.3271,0.3128,0.3252,0.3082,0.3076,0.3075,0.3073,0.3072,0.3072,0.2805,0.2829,0.2851,0.2931,0.3037,0.3115,0.328,0.3375,0.3429,0.3514,0.345,0.3446,0.3302,0.3543,0.3543,0.3544,0.3545,0.3545,0.3546,0.2827,0.2859,0.2905,0.2979,0.3038,0.3156,0.3363,0.3481,0.3607,0.3611,0.361,0.3338,0.3386,0.3374,0.3557,0.3555,0.3554,0.3553,0.3552,0.2862,0.2868,0.2933,0.2982,0.3087,0.3122,0.3349,0.3542,0.3699,0.3743,0.354,0.3667,0.3606,0.3587,0.3577,0.3803,0.3803,0.3803,0.3803,0.2873,0.2886,0.2947,0.2999,0.3064,0.3109,0.3172,0.3355,0.3517,0.3528,0.3562,0.3422,0.3419,0.3337,0.3323,0.3303,0.3455,0.3454,0.3454,0.2891,0.2915,0.293,0.2961,0.3023,0.3017,0.2952,0.2986,0.3254,0.3424,0.3374,0.3389,0.3163,0.3169,0.3014,0.3007,0.2964,0,0]},{"header":{"parameterUnit":"m.s-1","parameterCategory":2,"la1":30.2992,"la2":30.254,"lo1":-89.0895,"lo2":-89.0443,"dy":0.0025,"dx":0.0025,"nx":19,"ny":19,"refTime":"2026-03-10T09:00:00:Z","depth":"0","parameterNumber":3,"parameterNumberName":"V-component_of_CURRENTS"},"data":[0,0,0,0.0301,0.03,0.0263,0.0263,0.0194,0.0194,0,0,0,0,0,0,0,0,0,0,0,0.0315,0.0314,0.0301,0.03,0.0263,0.0263,0.0195,0.0194,0,0,0,0,0,0,0,0,0,0,0,0.0315,0.0315,0.0314,0.03,0.0264,0.0263,0.0195,0.0226,0,0,0,0,0,0,0,0,0,0,0.0264,0.0285,0.0315,0.0314,0.03,0.0264,0.0263,0.0228,0.0224,0.0207,0,0.0207,0,0.0201,0.0189,0.0189,0,0,0,0.0293,0.0289,0.0276,0.0314,0.0299,0.0264,0.0278,0.0226,0.0222,0.0202,0.0206,0.0204,0.0199,0.0189,0.0189,0.024,0.0241,0,0,0.0295,0.0307,0.028,0.0274,0.0297,0.0279,0.0277,0.0223,0.0223,0.0206,0.0202,0.0198,0.0188,0.0188,0.0239,0.024,0,0,0,0.0305,0.0309,0.0298,0.0277,0.0273,0.0278,0.0276,0.0225,0.0221,0.0201,0.0198,0.0188,0.0187,0.0237,0.0239,0.0404,0,0,0,0.0306,0.0315,0.0299,0.0306,0.0274,0.0253,0.0279,0.0225,0.0219,0.0198,0.0188,0.0187,0.0236,0.0238,0.0397,0.0504,0,0,0,0.0315,0.0316,0.0313,0.0307,0.0293,0.0253,0.0246,0.0224,0.0217,0.0189,0.0186,0.0235,0.0238,0.0391,0.0492,0.0572,0,0,0,0.0325,0.0361,0.0314,0.035,0.0294,0.0326,0.0247,0.0246,0.0231,0.0188,0.0236,0.0239,0.0389,0.0484,0.0564,0.0658,0.0699,0,0,0.0386,0.0369,0.0391,0.0349,0.0411,0.033,0.0404,0.0334,0.0265,0.0248,0.0249,0.0399,0.0491,0.057,0.0803,0.084,0,0,0,0.042,0.0444,0.045,0.0469,0.0462,0.0499,0.0426,0.0414,0.0408,0.0268,0.0404,0.0458,0.0502,0.0543,0.0573,0.0356,0.0251,0.025,0.025,0.0522,0.0521,0.0588,0.0598,0.062,0.0612,0.0646,0.0619,0.0512,0.0546,0.0594,0.0777,0.0823,0.0846,0.0622,0.0577,0.0578,0.0578,0.0579,0.0643,0.0693,0.0705,0.0773,0.0798,0.0854,0.0871,0.0828,0.0884,0.0764,0.0797,0.0719,0.0889,0.0637,0.0589,0.0588,0.0586,0.0585,0.0584,0.0726,0.0758,0.0791,0.0889,0.0993,0.1011,0.1165,0.1135,0.1059,0.1114,0.1096,0.1093,0.0868,0.1101,0.1102,0.1103,0.1103,0.1104,0.1105,0.0799,0.084,0.092,0.1013,0.1093,0.1226,0.1339,0.1408,0.1404,0.1317,0.1316,0.0923,0.0935,0.091,0.1118,0.1115,0.1114,0.1113,0.1112,0.0898,0.0905,0.1021,0.1102,0.1295,0.1483,0.1583,0.1735,0.175,0.1758,0.1277,0.1406,0.1362,0.1336,0.132,0.1622,0.1622,0.1622,0.1622,0.0949,0.0966,0.1115,0.1255,0.1447,0.1609,0.1893,0.1988,0.1739,0.1533,0.1361,0.1222,0.1211,0.1145,0.1124,0.1096,0.1335,0.1334,0.1333,0.1001,0.104,0.1153,0.1292,0.1513,0.1756,0.202,0.2142,0.1688,0.129,0.1045,0.1057,0.081,0.081,0.0664,0.0651,0.0591,0,0]}],[{"header":{"parameterUnit":"m.s-1","parameterCategory":2,"la1":30.2992,"la2":30.254,"lo1":-89.0895,"lo2":-89.0443,"dy":0.0025,"dx":0.0025,"nx":19,"ny":19,"refTime":"2026-03-10T09:00:00:Z","depth":"2","parameterNumber":2,"parameterNumberName":"U-component_of_CURRENTS"},"data":[0,0,0,0.2158,0.216,0.2229,0.223,0.2304,0.2305,0,0,0,0,0,0,0,0,0,0,0,0.2137,0.2138,0.2158,0.216,0.2229,0.223,0.2304,0.2305,0,0,0,0,0,0,0,0,0,0,0,0.2137,0.2138,0.2139,0.216,0.2229,0.223,0.2303,0.2253,0,0,0,0,0,0,0,0,0,0,0.2186,0.2164,0.2137,0.2139,0.2161,0.2229,0.223,0.225,0.2256,0.2271,0,0.2293,0,0.2304,0.231,0.231,0,0,0,0.2152,0.216,0.2188,0.2139,0.2161,0.2229,0.2196,0.2253,0.226,0.2278,0.2294,0.2297,0.2305,0.231,0.2311,0.2421,0.2421,0,0,0.2148,0.2138,0.2184,0.2192,0.2195,0.2194,0.2198,0.2257,0.2265,0.2295,0.2299,0.2306,0.2311,0.2312,0.242,0.2421,0,0,0,0.2142,0.2136,0.2162,0.2189,0.2205,0.2196,0.2201,0.2262,0.2274,0.23,0.2307,0.2311,0.2312,0.2419,0.242,0.2504,0,0,0,0.214,0.2133,0.2161,0.2154,0.2204,0.2235,0.2204,0.227,0.2277,0.2307,0.2311,0.2313,0.2419,0.242,0.25,0.2562,0,0,0,0.2131,0.2132,0.2147,0.2153,0.2188,0.2234,0.2249,0.2271,0.2282,0.231,0.2313,0.2418,0.242,0.2497,0.2555,0.2641,0,0,0,0.2108,0.2131,0.2147,0.2178,0.2188,0.2243,0.2248,0.2284,0.2309,0.2312,0.2419,0.242,0.2496,0.2551,0.2637,0.2543,0.2557,0,0,0.2121,0.2133,0.2152,0.2167,0.2223,0.2232,0.2305,0.2336,0.2338,0.2395,0.2398,0.2501,0.2555,0.264,0.2625,0.2637,0,0,0,0.2145,0.2165,0.2182,0.2223,0.2261,0.2327,0.235,0.2385,0.2454,0.2363,0.2507,0.2539,0.259,0.2523,0.2533,0.2427,0.2427,0.2427,0.2427,0.2163,0.2188,0.2229,0.2274,0.2318,0.2395,0.2467,0.2524,0.25,0.2551,0.261,0.2739,0.2667,0.2674,0.2599,0.2599,0.26,0.26,0.26,0.2196,0.2219,0.2272,0.2322,0.2401,0.2473,0.2595,0.2625,0.2766,0.2703,0.2748,0.2618,0.2689,0.2607,0.2606,0.2605,0.2604,0.2603,0.2603,0.222,0.2225,0.2266,0.2337,0.2439,0.2529,0.2683,0.2774,0.2849,0.2926,0.2849,0.2845,0.2809,0.2942,0.2943,0.2944,0.2944,0.2945,0.2945,0.2202,0.2236,0.2257,0.2348,0.2397,0.252,0.2746,0.285,0.294,0.2959,0.2957,0.2855,0.2844,0.283,0.2955,0.2953,0.2952,0.2951,0.295,0.2167,0.2203,0.2228,0.2267,0.2363,0.2407,0.2658,0.284,0.2994,0.2994,0.2976,0.2972,0.2946,0.2934,0.2922,0.3065,0.3065,0.3065,0.3065,0.2145,0.2162,0.2178,0.2203,0.2257,0.235,0.2418,0.2521,0.271,0.2762,0.2774,0.2633,0.2636,0.2584,0.258,0.2557,0.2605,0.2604,0.2603,0.2101,0.2138,0.2132,0.2177,0.2196,0.2247,0.2172,0.2097,0.23,0.2578,0.2622,0.3048,0.2868,0.2862,0.2799,0.2787,0.2757,0,0]},{"header":{"parameterUnit":"m.s-1","parameterCategory":2,"la1":30.2992,"la2":30.254,"lo1":-89.0895,"lo2":-89.0443,"dy":0.0025,"dx":0.0025,"nx":19,"ny":19,"refTime":"2026-03-10T09:00:00:Z","depth":"2","parameterNumber":3,"parameterNumberName":"V-component_of_CURRENTS"},"data":[0,0,0,0.0115,0.0115,0.0089,0.0089,0.0032,0.0031,0,0,0,0,0,0,0,0,0,0,0,0.0122,0.0122,0.0115,0.0115,0.0089,0.0089,0.0032,0.0031,0,0,0,0,0,0,0,0,0,0,0,0.0122,0.0122,0.0122,0.0115,0.0089,0.0089,0.0032,0.0055,0,0,0,0,0,0,0,0,0,0,0.0082,0.0094,0.0122,0.0122,0.0115,0.009,0.0089,0.0056,0.0053,0.0039,0,0.0041,0,0.004,0.0028,0.0028,0,0,0,0.0105,0.0096,0.0093,0.0122,0.0115,0.009,0.0098,0.0055,0.0052,0.0036,0.0041,0.0039,0.0039,0.0027,0.0027,0.0039,0.004,0,0,0.0106,0.0111,0.0095,0.0091,0.0115,0.0099,0.0097,0.0053,0.005,0.004,0.0037,0.0038,0.0027,0.0027,0.0039,0.004,0,0,0,0.0117,0.0112,0.0109,0.0093,0.0093,0.0098,0.0097,0.0052,0.0052,0.0037,0.0037,0.0027,0.0026,0.0038,0.0039,0.012,0,0,0,0.0117,0.0119,0.011,0.0112,0.0095,0.0076,0.0097,0.0055,0.0051,0.0038,0.0027,0.0026,0.0038,0.0039,0.0117,0.0185,0,0,0,0.0121,0.0119,0.0119,0.0112,0.0107,0.0077,0.0074,0.0054,0.0051,0.0028,0.0026,0.0037,0.0039,0.0114,0.0179,0.0235,0,0,0,0.0122,0.0138,0.012,0.0137,0.0107,0.0125,0.0074,0.0073,0.0059,0.0027,0.0038,0.0039,0.0113,0.0175,0.0231,0.0278,0.0301,0,0,0.0147,0.0141,0.0153,0.0137,0.0171,0.0127,0.0159,0.0113,0.0073,0.0047,0.0047,0.0118,0.0178,0.0234,0.035,0.0371,0,0,0,0.0165,0.0177,0.0183,0.0196,0.0196,0.0212,0.0167,0.0154,0.0136,0.0071,0.012,0.0157,0.0189,0.0209,0.0225,0.0045,0.0045,0.0045,0.0045,0.0206,0.0212,0.025,0.0261,0.0272,0.0267,0.0279,0.0254,0.019,0.0201,0.0223,0.0327,0.0348,0.0361,0.0205,0.0205,0.0206,0.0206,0.0206,0.0268,0.0298,0.0311,0.035,0.0365,0.039,0.039,0.0361,0.0381,0.0308,0.0334,0.0294,0.0385,0.0213,0.0211,0.0211,0.021,0.0209,0.0209,0.0312,0.0329,0.0352,0.0412,0.0468,0.0478,0.0575,0.0538,0.0482,0.0511,0.051,0.0509,0.039,0.051,0.051,0.0511,0.0511,0.0512,0.0512,0.0344,0.037,0.0417,0.0479,0.0535,0.0627,0.0687,0.0722,0.0697,0.0634,0.0633,0.043,0.042,0.0408,0.0521,0.0519,0.0518,0.0517,0.0517,0.039,0.0393,0.0471,0.0528,0.0678,0.0849,0.0885,0.0962,0.0947,0.0935,0.0695,0.0688,0.0673,0.0658,0.0652,0.0822,0.0822,0.0822,0.0822,0.0411,0.0421,0.0522,0.0631,0.0803,0.0949,0.1163,0.1136,0.1001,0.0882,0.0879,0.0806,0.0793,0.0778,0.076,0.0753,0.095,0.095,0.095,0.0435,0.0462,0.0548,0.0659,0.086,0.1102,0.1299,0.1256,0.103,0.0951,0.086,0.0838,0.0718,0.0703,0.0664,0.0643,0.0624,0,0]}],[{"header":{"parameterUnit":"m.s-1","parameterCategory":2,"la1":30.2992,"la2":30.254,"lo1":-89.0895,"lo2":-89.0443,"dy":0.0025,"dx":0.0025,"nx":19,"ny":19,"refTime":"2026-03-10T09:00:00:Z","depth":"4","parameterNumber":2,"parameterNumberName":"U-component_of_CURRENTS"},"data":[0,0,0,0.1406,0.1409,0.156,0.156,0.1688,0.1689,0,0,0,0,0,0,0,0,0,0,0,0.1357,0.1359,0.1406,0.141,0.156,0.156,0.1688,0.1689,0,0,0,0,0,0,0,0,0,0,0,0.1357,0.1358,0.136,0.141,0.156,0.156,0.1688,0.1591,0,0,0,0,0,0,0,0,0,0,0.1453,0.1421,0.1358,0.136,0.1411,0.1559,0.1561,0.1587,0.1597,0.1601,0,0.1631,0,0.166,0.1696,0.1696,0,0,0,0.1412,0.1413,0.1448,0.136,0.1412,0.1559,0.1493,0.1593,0.1604,0.1613,0.1633,0.1639,0.1662,0.1696,0.1697,0.1814,0.1815,0,0,0.1404,0.1388,0.1441,0.1456,0.146,0.1488,0.1497,0.1601,0.1617,0.1634,0.1642,0.1664,0.1697,0.1698,0.1814,0.1814,0,0,0,0.1378,0.1382,0.1417,0.145,0.1481,0.1492,0.1503,0.1613,0.1624,0.1644,0.1666,0.1698,0.1699,0.1813,0.1814,0.1856,0,0,0,0.1373,0.1367,0.1413,0.1406,0.148,0.1559,0.1513,0.1617,0.1629,0.1665,0.1698,0.17,0.1812,0.1813,0.1853,0.1871,0,0,0,0.1349,0.1365,0.1384,0.1405,0.1468,0.1558,0.1576,0.162,0.1642,0.1696,0.17,0.1812,0.1813,0.1851,0.1867,0.1912,0,0,0,0.1324,0.1353,0.1384,0.1428,0.1467,0.155,0.1576,0.1651,0.1699,0.1698,0.1812,0.1814,0.1851,0.1865,0.191,0.1657,0,0,0,0.1338,0.1355,0.1379,0.141,0.1479,0.1529,0.1616,0.1692,0.1717,0.1773,0.1777,0.1854,0.1867,0.1912,0.1731,0,0,0,0,0.1369,0.1388,0.1414,0.1469,0.1532,0.1609,0.1683,0.1724,0.1812,0.1753,0.1868,0.1874,0.1901,0.1747,0.182,0.182,0.1819,0.1819,0.1819,0.1358,0.1397,0.1439,0.1501,0.1566,0.1675,0.1745,0.1817,0.1835,0.1886,0.1919,0.1994,0.1833,0.193,0.193,0.1931,0.1931,0.1931,0.1931,0.1363,0.1372,0.1451,0.1508,0.1598,0.1688,0.1819,0.1869,0.1984,0.1972,0.1996,0.1813,0.1935,0.1935,0.1934,0.1933,0.1933,0.1933,0.1933,0.1328,0.133,0.1394,0.1474,0.1582,0.1702,0.1798,0.1922,0.2019,0.2069,0.1916,0.2032,0.2018,0.2093,0.2093,0.2093,0.2093,0.2094,0.2094,0.1245,0.1303,0.1322,0.1429,0.1483,0.1603,0.18,0.1873,0.2005,0.1942,0.2093,0.2049,0.2044,0.2028,0.2098,0.2097,0.2097,0.2096,0.2096,0.1148,0.1185,0.12,0.124,0.1352,0.1433,0.1646,0.1759,0.1827,0.1836,0.1872,0.1881,0.1845,0.1845,0.182,0.1833,0.1829,0.1827,0,0.1053,0.1079,0.107,0.1086,0.1141,0.1308,0.1357,0.1494,0.1643,0.159,0.1827,0.1861,0.1868,0.1821,0.1817,0.1782,0,0,0,0.0957,0.0974,0.0925,0.097,0.1025,0.1172,0.1364,0.1363,0.1622,0.1621,0.1752,0.1771,0.1933,0.2112,0.208,0.2074,0.2047,0,0]},{"header":{"parameterUnit":"m.s-1","parameterCategory":2,"la1":30.2992,"la2":30.254,"lo1":-89.0895,"lo2":-89.0443,"dy":0.0025,"dx":0.0025,"nx":19,"ny":19,"refTime":"2026-03-10T09:00:00:Z","depth":"4","parameterNumber":3,"parameterNumberName":"V-component_of_CURRENTS"},"data":[0,0,0,0.0106,0.0106,0.009,0.009,0.0048,0.0048,0,0,0,0,0,0,0,0,0,0,0,0.0109,0.0109,0.0106,0.0106,0.009,0.009,0.0048,0.0048,0,0,0,0,0,0,0,0,0,0,0,0.0109,0.0109,0.0109,0.0106,0.009,0.009,0.0048,0.0064,0,0,0,0,0,0,0,0,0,0,0.0081,0.009,0.0109,0.0109,0.0106,0.009,0.009,0.0065,0.0063,0.0051,0,0.0053,0,0.0053,0.0045,0.0045,0,0,0,0.0098,0.0092,0.0089,0.0109,0.0105,0.009,0.0095,0.0064,0.0062,0.0049,0.0053,0.0051,0.0052,0.0045,0.0045,0.0034,0.0034,0,0,0.0099,0.0103,0.0091,0.0088,0.0107,0.0096,0.0095,0.0063,0.0061,0.0053,0.005,0.0052,0.0045,0.0045,0.0034,0.0034,0,0,0,0.0107,0.0103,0.0102,0.009,0.009,0.0095,0.0094,0.0062,0.0063,0.005,0.0051,0.0045,0.0044,0.0034,0.0034,0.0081,0,0,0,0.0107,0.0108,0.0102,0.0104,0.0091,0.0079,0.0095,0.0065,0.0061,0.0051,0.0045,0.0044,0.0033,0.0034,0.0079,0.0113,0,0,0,0.0109,0.0108,0.0109,0.0104,0.0101,0.008,0.0078,0.0064,0.0062,0.0045,0.0044,0.0033,0.0034,0.0078,0.011,0.0131,0,0,0,0.011,0.0116,0.0109,0.0117,0.0102,0.0108,0.0078,0.0076,0.0065,0.0044,0.0033,0.0034,0.0077,0.0108,0.0129,0.0165,0,0,0,0.0119,0.0117,0.0123,0.0116,0.0134,0.011,0.0121,0.0092,0.0066,0.004,0.004,0.008,0.0109,0.0131,0.0188,0,0,0,0,0.0127,0.0132,0.0136,0.0144,0.0145,0.0152,0.0123,0.0109,0.009,0.0063,0.0075,0.0092,0.0104,0.0119,0.0036,0.0036,0.0036,0.0036,0.0036,0.014,0.0147,0.0168,0.0177,0.0183,0.0177,0.0175,0.015,0.0117,0.0116,0.0127,0.0172,0.0188,0.0114,0.0115,0.0115,0.0115,0.0115,0.0115,0.0167,0.0186,0.0199,0.0222,0.0233,0.0245,0.0228,0.0207,0.0198,0.0164,0.0172,0.0163,0.012,0.0119,0.0118,0.0118,0.0117,0.0117,0.0117,0.0183,0.0197,0.0212,0.0259,0.0299,0.0303,0.0351,0.0312,0.0254,0.0262,0.0268,0.0206,0.0207,0.0263,0.0263,0.0264,0.0264,0.0264,0.0264,0.0198,0.0216,0.0265,0.0308,0.0361,0.042,0.0428,0.0422,0.0357,0.0336,0.028,0.0222,0.0217,0.0215,0.0268,0.0267,0.0267,0.0267,0.0266,0.0229,0.0242,0.032,0.0375,0.0494,0.0541,0.0545,0.051,0.0499,0.0459,0.0367,0.0361,0.0348,0.0341,0.0342,0.0435,0.0436,0.0437,0,0.0255,0.0264,0.0384,0.0491,0.0594,0.0624,0.0645,0.0616,0.0516,0.0512,0.0484,0.0383,0.0377,0.0364,0.0357,0.0361,0,0,0,0.0292,0.0327,0.042,0.0522,0.0645,0.0664,0.0655,0.0633,0.0536,0.0517,0.0454,0.045,0.0366,0.0279,0.0246,0.024,0.0235,0,0]}]]